Showing default

COSMOS 1415 (GLONASS), 13607

Orbit data source: Space-Track

COSMOS 1415 (GLONASS), 13607 is a payload satellite owned by GUKOS (CIS) in MEO that was launched on Tue, 12 Oct 1982 UTC via a PROTON-K/DM-2 launch vehicle from the Tyuratam Missile And Space Complex (TTMTR). Payload-class satellites include a variety of spacecraft equipped with specific instruments for various scientific and technological missions. These include communications satellites like Starlink; space stations such as the ISS; scientific satellites like the Hubble; Earth observation satellites from companies like Planet Labs, Umbra, and HawkEye 360; GPS; miniature CubeSats for education and research; and military/defense satellites.

Loading next visibility...
Identifier
13607, 1982-100E
Orbit
MEO
Country
Flag of CISCIS
Related business
Manufacturer
Omsk Av. Zav.
Mission
Non-operational spacecraft
Bus & Motor
URAGAN, Unknown motor
Mass
1,300 kg wet, ~1,200 kg dry
Launch date (UTC)
1982-10-12 (44 years ago)
Launch vehicle
PROTON-K/DM-2
Launch site
Tyuratam Missile And Space Complex (TTMTR)
Object type
Payload
Rocket body
Debris
Shape & HBR
Unknown
Radar Cross Section
Medium (>0.1 m² and <1 m²)

Expand to show TLE details & history
Last TLE update: 1 day ago

TLE from 1 day ago
0 COSMOS 1415 (GLONASS)
1 13607U 82100E   26163.11280380 -.00000036  00000-0  00000-0 0  9999
2 13607  64.8588  66.9888 0005320  27.2658 153.9496  2.13809923340835
Epoch: 2026-06-12T02:42Z
TLE epoch observation values (Epoch: 2026-06-12T02:42:26.248Z)
Latitude
-1.15729°
Longitude
-53.51633°
Altitude
19,086.457 km
Speed
3.956 km/s
True Right ascension
16h 30m 09s
True Declination
-1° 09' 19"
Sunlit
Object was in daylight at epoch
Visualization orbit readout
Latitude
Unknown
Longitude
Unknown
Altitude
Unknown
Speed
Unknown
Apparent Right ascension
Unknown
Apparent Declination
Unknown
Sunlit
N/A
Visualization observer readout
Local Sidereal Time
18:33:47
Azimuth
Unknown
Elevation
Unknown
Doppler factor
Unknown
Orbital elements
Apogee altitude
19,086.711 km
Perigee altitude
19,059.631 km
Semi-major axis
25,451.308 km
Eccentricity
0.00053
Inclination
64.8588°
RAAN
66.9888°
Arg. of periapsis
27.2658°
True anomaly
153.97636°
Mean anomaly
153.9496°
Eccentric anomaly
153.96298°
Mean motion
0.53454 °/min
Orbital period
673.48 mins
BSTAR
0
Loading maneuver chart data...
Computing Atmospheric mass density...
Loading historical data...
Loading historical data...
Loading historical data...
Loading historical data...
Loading historical data...
Loading historical data...
Loading historical data...

Documentation

Showing up to 5 results
|